DELTA 1 R/B(2), 11984

Orbit data source: Space-Track

DELTA 1 R/B(2), 11984 is space debris in LEO originally from a launch on Thu, 23 Mar 1967 UTC launched from the Air Force Eastern Test Range (AFETR). Debris objects in space refer to the collection of defunct objects orbiting the Earth. Examples of debris include non-operational satellites, rocket bodies, and fragments generated from explosions, collisions, or faulty payload assembly.

Loading next visibility...
DELTA 1 R/B(2) details
Identifier
11984, 1967-026C
Orbit
LEO
Last TLE update9 hours ago
Origin
Flag of USGSFC (US)
ManufacturerUTC
MissionSpacecraft
Bus & MotorFW4, Unknown motor
Mass35 kg wet, 35 kg dry
Launch date (UTC)
1967-03-23 (58 years ago)
Launch vehicleUnknown
Launch site
Air Force Eastern Test Range (AFETR)
Object type
Payload
Rocket body
Debris
Shape & HBRCyl, 1.5 m
Radar Cross Section0.687 m², Medium (>0.1 m² and < 1m²)

Expand to show TLE details & history

TLE from 9 hours ago
0 DELTA 1 R/B(2)
1 11984U 67026C   24356.18680293  .00657297 -45081-5  38545-2 0  9998
2 11984  26.0383  70.8878 2073517 217.1096 126.6551 11.47266763533365
Epoch: 2024-12-21T04:28Z
Definitive object data (Epoch: 2024-12-21T04:28:59.773Z)
Latitude0.00001°
Longitude-86.6028°
Altitude3,142.393 km
Speed5.98 km/s
True Right ascension04h 43m 33s
True Declination0° 00' 00"
Sunlit
Object was in full shadow at TLE epoch
Visualization TLE readout
Latitude22.94016°
Longitude32.31899°
Altitude1,918.421 km
Speed6.937 km/s
Apparent Right ascension12h 25m 13s
Apparent Declination-17° 12' 25"
Sunlit
Object is in daylight
Visualization observer readout
Local Sidereal Time12:47:06
Azimuth186.207° SSW
Elevation32.65°
Doppler factor1
Orbital elements
Apogee altitude3,652.695 km
Perigee altitude207.286 km
Semi-major axis8,308.128 km
Eccentricity0.2073517
Inclination26.0383°
RAAN70.8878°
Arg. of periapsis217.1096°
True anomaly142.93596°
Mean anomaly126.6551°
Eccentric anomaly135.04866°
Mean motion2.86608 °/min
BSTAR0.0038545
Orbital period125.61 mins
Loading maneuver chart data...
Loading historical data...
Loading historical data...
Loading historical data...
Loading historical data...
Loading historical data...
Loading historical data...
Loading historical data...
Other satellites on launch #26 in the year 1967 (1967-03-23 UTC)

DELTA 1 R/B(2) Visibility forecast

Observer location: undefined°, undefined

Span
Click to sort rows by Start time (UTC) header in descending order
Start Az.
Max El. time (UTC)
Max El. Az.
Max El.
End time (UTC)
End Az.
6 mins2024-12-21 13:45:05.391Z186.18° SSW2024-12-21 13:45:05.391Z186.18° SSW28.226°2024-12-21 13:51:05.391Z145.199° SSE
24 mins2024-12-22 05:34:05.391Z175.181° S2024-12-22 05:45:05.391Z140.681° SSE18.542°2024-12-22 05:58:05.391Z105.099° ESE
35 mins2024-12-22 07:44:05.391Z215.167° SW2024-12-22 08:02:05.391Z156.511° SSE32.454°2024-12-22 08:19:05.391Z98.815° ESE
34 mins2024-12-22 10:00:05.391Z241.574° WSW2024-12-22 10:20:05.391Z174.834° S37.697°2024-12-22 10:34:05.391Z108.804° ESE
27 mins2024-12-22 12:20:05.391Z257.129° W2024-12-22 12:36:05.391Z200.53° SSW34.654°2024-12-22 12:47:05.391Z130.532° SE
|